TimeCST,TemperatureF,Dew PointF,Humidity,Sea Level PressureIn,VisibilityMPH,Wind Direction,Wind SpeedMPH,Gust SpeedMPH,PrecipitationIn,Events,Conditions,WindDirDegrees,DateUTC
12:53 AM,30.9,12.0,46,30.61,10.0,Calm,Calm,-,N/A,,Clear,0,2013-11-24 06:53:00
1:53 AM,30.0,10.0,43,30.60,10.0,NE,5.8,-,N/A,,Clear,50,2013-11-24 07:53:00
2:53 AM,28.0,10.9,49,30.61,10.0,NNE,4.6,-,N/A,,Clear,20,2013-11-24 08:53:00
3:53 AM,27.0,10.0,49,30.63,10.0,North,5.8,-,N/A,,Clear,10,2013-11-24 09:53:00
4:53 AM,25.0,12.0,58,30.63,10.0,NE,4.6,-,N/A,,Clear,40,2013-11-24 10:53:00
5:53 AM,25.0,12.0,58,30.66,10.0,NE,4.6,-,N/A,,Clear,50,2013-11-24 11:53:00
6:53 AM,25.0,12.0,58,30.67,10.0,NNE,3.5,-,N/A,,Clear,20,2013-11-24 12:53:00
7:53 AM,26.1,12.0,55,30.68,10.0,ENE,5.8,-,N/A,,Clear,60,2013-11-24 13:53:00
8:53 AM,27.0,10.9,51,30.69,10.0,ENE,5.8,-,N/A,,Clear,70,2013-11-24 14:53:00
9:53 AM,28.9,10.9,47,30.67,10.0,ENE,8.1,-,N/A,,Clear,60,2013-11-24 15:53:00
10:53 AM,30.0,10.0,43,30.66,10.0,East,6.9,-,N/A,,Clear,80,2013-11-24 16:53:00
11:53 AM,30.9,10.9,43,30.62,10.0,ENE,8.1,-,N/A,,Clear,70,2013-11-24 17:53:00
12:53 PM,32.0,10.9,42,30.58,10.0,NE,8.1,-,N/A,,Clear,50,2013-11-24 18:53:00
1:53 PM,32.0,10.9,42,30.56,10.0,ENE,8.1,-,N/A,,Partly Cloudy,60,2013-11-24 19:53:00
2:53 PM,32.0,10.0,40,30.54,10.0,East,6.9,-,N/A,,Mostly Cloudy,90,2013-11-24 20:53:00
3:53 PM,32.0,10.9,42,30.55,10.0,ENE,3.5,-,0.00,,Overcast,70,2013-11-24 21:53:00
4:53 PM,32.0,14.0,48,30.52,10.0,Calm,Calm,-,0.00,,Overcast,0,2013-11-24 22:53:00
5:53 PM,32.0,15.1,50,30.50,10.0,Calm,Calm,-,N/A,,Overcast,0,2013-11-24 23:53:00
6:53 PM,33.1,12.9,43,30.49,10.0,East,3.5,-,N/A,,Overcast,100,2013-11-25 00:53:00
7:53 PM,33.1,12.9,43,30.47,10.0,East,3.5,-,N/A,,Overcast,90,2013-11-25 01:53:00
8:53 PM,33.1,12.9,43,30.45,10.0,Variable,3.5,-,N/A,,Overcast,0,2013-11-25 02:53:00
9:53 PM,33.1,14.0,46,30.45,10.0,ESE,4.6,-,N/A,,Overcast,110,2013-11-25 03:53:00
10:53 PM,33.1,15.1,48,30.43,10.0,Variable,5.8,-,N/A,,Overcast,0,2013-11-25 04:53:00
11:53 PM,32.0,14.0,48,30.42,10.0,ESE,5.8,-,N/A,,Overcast,110,2013-11-25 05:53:00